Skip Page Navigation
NASA JPL Caltech
NASA Logo - Jet Propulsion Laboratory + View the NASA Portal
+ Center for Near-Earth Object Studies
JPL Home Earth Solar System Stars & Galaxies Technology
JPL Solar System Dynamics
BODIES ORBITS EPHEMERIDES TOOLS PHYSICAL DATA DISCOVERY FAQ SITE MAP
JPL Small-Body Database Browser
Search: [ help ]  
160372 (2004 FC51)
Classification: Main-belt Asteroid          SPK-ID: 2160372
Ephemeris | Orbit Diagram | Orbital Elements | Mission Design | Physical Parameters | Discovery Circumstances ]

[ show orbit diagram ]
Orbital Elements at Epoch 2459000.5 (2020-May-31.0) TDB
Reference: JPL 12 (heliocentric ecliptic J2000)
 Element Value Uncertainty (1-sigma)   Units 
e .1328675454673216 4.4483e-08  
a 2.293302084404772 1.1524e-08 au
q 1.988596665434817 9.9645e-08 au
i 4.481204607324509 4.4887e-06 deg
node 95.18374160036676 6.742e-05 deg
peri 144.5799202943374 6.9808e-05 deg
M 200.0970134707772 1.9205e-05 deg
tp 2459563.935750606139
(2021-Dec-15.43575061)
6.8751e-05 TDB
period 1268.499573528235
3.47
9.5612e-06
2.618e-08
d
yr
n .2837998589141718 2.1391e-09 deg/d
Q 2.598007503374726 1.3055e-08 au
  Orbit Determination Parameters
   # obs. used (total)      321  
   data-arc span      7260 days (19.88 yr)  
   first obs. used      1999-12-13  
   last obs. used      2019-10-29  
   planetary ephem.      DE431  
   SB-pert. ephem.      SB431-N16  
   condition code      0  
   norm. resid. RMS      .54917  
   source      ORB  
   producer      Otto Matic  
   solution date      2019-Nov-07 18:39:56  

Additional Information
 Earth MOID = .977945 au 
 Jupiter MOID = 2.40865 au 
 T_jup = 3.581 
[ show covariance matrix ]

Ephemeris | Orbit Diagram | Orbital Elements | Mission Design | Physical Parameters | Discovery Circumstances ]

Physical Parameter Table
Parameter Symbol Value Units Sigma Reference Notes
absolute magnitude H 16.9   n/a MPO439949  

160372 (2004 FC51)          Discovered 2004-Mar-18 by Spacewatch at Kitt Peak
Reference: 20070730/Numbers.arcLast Updated: 2007-08-06
Ephemeris | Orbit Diagram | Orbital Elements | Mission Design | Physical Parameters | Discovery Circumstances ]
ABOUT SSD CREDITS/AWARDS PRIVACY/COPYRIGHT GLOSSARY LINKS
FirstGov 2020-Oct-26 02:30 UT
(server date/time)  
NASA Home Page
Site Manager:   Ryan S. Park
Webmaster  Alan B. Chamberlin